TimeEST,TemperatureF,Dew PointF,Humidity,Sea Level PressureIn,VisibilityMPH,Wind Direction,Wind SpeedMPH,Gust SpeedMPH,PrecipitationIn,Events,Conditions,WindDirDegrees,DateUTC
12:55 AM,38.1,24.6,58,30.28,10.0,SSW,9.2,-,N/A,,Clear,210,2013-02-19 05:55:00
1:55 AM,37.2,25.3,62,30.25,10.0,South,9.2,-,N/A,,Clear,190,2013-02-19 06:55:00
2:55 AM,37.2,24.6,60,30.22,10.0,South,11.5,-,N/A,,Clear,190,2013-02-19 07:55:00
3:55 AM,36.3,25.7,65,30.21,10.0,SSW,12.7,-,N/A,,Clear,200,2013-02-19 08:55:00
4:55 AM,35.4,27.1,72,30.19,10.0,SSW,11.5,-,N/A,,Clear,200,2013-02-19 09:55:00
5:55 AM,36.3,29.3,76,30.17,10.0,South,8.1,-,N/A,,Clear,190,2013-02-19 10:55:00
6:55 AM,37.2,31.3,79,30.15,10.0,South,10.4,-,N/A,,Clear,180,2013-02-19 11:55:00
7:55 AM,40.3,33.8,78,30.13,10.0,South,6.9,-,N/A,,Clear,190,2013-02-19 12:55:00
8:55 AM,46.9,37.6,70,30.11,10.0,South,11.5,-,N/A,,Mostly Cloudy,190,2013-02-19 13:55:00
9:55 AM,52.3,40.1,63,30.08,10.0,South,12.7,-,N/A,,Overcast,180,2013-02-19 14:55:00
10:55 AM,53.4,41.5,64,30.06,10.0,SSW,17.3,-,N/A,,Overcast,200,2013-02-19 15:55:00
11:55 AM,55.9,43.3,63,30.01,10.0,South,15.0,-,N/A,,Mostly Cloudy,190,2013-02-19 16:55:00
12:55 PM,58.6,44.6,60,29.95,10.0,South,16.1,24.2,N/A,,Overcast,190,2013-02-19 17:55:00
1:23 PM,59.0,44.6,59,29.92,7.0,SSW,15.0,-,N/A,Rain,Light Rain,210,2013-02-19 18:23:00
1:25 PM,59.0,44.6,59,29.93,10.0,SSW,16.1,-,N/A,Rain,Light Rain,210,2013-02-19 18:25:00
1:55 PM,55.6,47.8,75,29.92,7.0,SSW,16.1,24.2,0.00,Rain,Light Rain,210,2013-02-19 18:55:00
2:19 PM,53.6,48.2,82,29.91,9.0,SSW,18.4,27.6,N/A,Rain,Light Rain,210,2013-02-19 19:19:00
2:34 PM,53.6,50.0,88,29.89,10.0,SSW,17.3,-,N/A,,Overcast,200,2013-02-19 19:34:00
2:42 PM,55.4,50.0,82,29.88,10.0,SSW,13.8,-,N/A,,Overcast,200,2013-02-19 19:42:00
2:55 PM,54.9,49.8,83,29.87,10.0,SSW,16.1,-,0.01,,Overcast,200,2013-02-19 19:55:00
3:55 PM,55.6,49.6,80,29.84,10.0,SSW,16.1,-,N/A,,Overcast,200,2013-02-19 20:55:00
4:01 PM,55.4,50.0,82,29.83,10.0,SSW,17.3,-,N/A,,Overcast,210,2013-02-19 21:01:00
4:10 PM,55.4,50.0,82,29.83,10.0,SSW,19.6,24.2,N/A,,Overcast,210,2013-02-19 21:10:00
4:18 PM,55.4,50.0,82,29.83,10.0,SSW,15.0,-,N/A,Rain,Light Rain,210,2013-02-19 21:18:00
4:26 PM,55.4,50.0,82,29.82,10.0,SSW,19.6,26.5,N/A,Rain,Light Rain,200,2013-02-19 21:26:00
4:37 PM,55.4,50.0,82,29.82,10.0,SSW,19.6,28.8,N/A,,Overcast,210,2013-02-19 21:37:00
4:42 PM,55.4,50.0,82,29.81,10.0,SSW,19.6,26.5,N/A,,Overcast,210,2013-02-19 21:42:00
4:55 PM,55.4,48.9,79,29.81,10.0,SSW,18.4,27.6,0.00,,Overcast,210,2013-02-19 21:55:00
5:55 PM,55.8,48.0,75,29.80,10.0,SW,19.6,26.5,N/A,,Overcast,220,2013-02-19 22:55:00
6:26 PM,55.4,48.2,77,29.81,10.0,WSW,16.1,-,N/A,Rain,Light Rain,250,2013-02-19 23:26:00
7:15 PM,51.8,50.0,94,29.83,10.0,WSW,18.4,-,N/A,,Overcast,250,2013-02-20 00:15:00
7:25 PM,51.8,50.0,94,29.83,10.0,WSW,19.6,-,N/A,,Mostly Cloudy,250,2013-02-20 00:25:00
7:26 PM,51.8,50.0,94,29.83,10.0,WSW,18.4,-,N/A,Rain,Light Rain,250,2013-02-20 00:26:00
7:35 PM,51.8,48.2,88,29.84,10.0,West,17.3,-,N/A,,Mostly Cloudy,260,2013-02-20 00:35:00
7:55 PM,50.7,48.0,90,29.84,10.0,WSW,16.1,-,0.02,,Partly Cloudy,250,2013-02-20 00:55:00
8:55 PM,49.5,45.7,87,29.86,10.0,West,13.8,21.9,N/A,,Partly Cloudy,260,2013-02-20 01:55:00
9:55 PM,47.1,43.7,88,29.87,10.0,WSW,10.4,-,N/A,,Clear,250,2013-02-20 02:55:00
10:55 PM,46.2,41.7,84,29.88,10.0,West,15.0,-,N/A,,Clear,260,2013-02-20 03:55:00
11:55 PM,44.8,38.7,79,29.88,10.0,West,13.8,-,N/A,,Clear,270,2013-02-20 04:55:00